Dewpoint
62 66 71 72 72 73 73 72 72 72 72 72 73 73 73 73 74 74 74 74 74 74 73 74 74 73 72 71 72 72 72 72 71 71 71 70 70 71 70 71 69 65 71
64 66 71 72 72 72 73 73 73 73 73 73 73 73 73 73 74 74 73 73 73 74 73 73 73 72 71 72 72 72 72 71 71 71 71 69 70 70 70 70 69 68 71
65 66 68 71 72 72 73 73 73 73 73 73 73 73 73 73 73 73 73 72 73 73 72 72 71 71 71 72 72 72 72 72 71 71 70 64 66 70 70 70 71 71 70
65 66 66 71 71 72 72 72 73 73 73 73 73 73 73 73 73 73 72 72 72 72 72 71 71 71 72 71 71 71 71 71 70 70 64 63 64 70 70 70 69 69 69
65 65 67 70 71 71 72 72 72 72 72 72 73 73 73 73 73 73 72 72 72 72 72 71 71 71 71 70 70 70 69 69 69 65 63 65 64 68 70 70 69 69 69
65 64 69 70 70 71 72 72 72 72 72 72 72 73 73 73 73 72 72 72 72 72 72 71 71 71 70 70 70 69 68 68 67 61 63 67 65 69 70 70 70 69 70
65 66 68 69 70 71 72 72 71 71 71 72 72 72 72 72 72 72 72 72 72 71 71 71 70 70 69 69 68 67 66 66 61 62 62 64 66 69 68 69 69 69 69
66 67 67 70 70 71 71 71 70 70 71 71 72 72 72 72 71 71 71 71 72 71 71 70 70 69 69 68 67 66 65 64 62 62 60 63 69 70 69 69 69 69 68
67 67 68 67 70 70 69 70 69 70 70 71 71 71 71 70 70 71 71 71 71 71 70 69 69 68 68 67 66 65 64 63 62 63 60 61 70 70 69 69 69 69 68
68 68 68 68 67 69 70 69 69 69 70 70 70 70 69 69 70 70 70 71 71 70 69 69 68 68 67 67 65 64 62 60 60 63 61 59 70 71 69 69 69 68 68
67 68 68 68 68 68 67 69 69 70 70 69 70 69 68 67 68 69 68 69 69 69 68 68 67 67 67 66 65 64 62 57 61 62 61 65 70 71 69 69 69 69 68
65 67 67 68 67 68 65 68 68 68 68 69 69 69 67 68 67 65 67 68 68 67 67 67 67 66 66 63 63 63 61 58 56 64 61 66 69 70 70 70 70 69 69
64 66 66 68 68 68 66 67 66 67 68 69 69 69 68 67 67 66 66 66 67 67 65 65 65 63 63 62 62 63 60 58 53 57 63 65 68 70 70 71 70 69 69
64 65 66 67 68 68 67 66 66 66 67 67 68 68 68 67 67 66 65 66 66 64 65 65 63 65 65 64 63 62 60 56 53 51 56 64 67 70 70 71 71 70 70
63 65 67 67 67 67 68 66 67 66 66 66 67 67 67 66 66 65 65 66 65 65 63 63 63 63 64 64 63 61 58 58 58 54 54 62 65 68 70 71 71 71 71
62 64 67 67 67 67 67 67 67 67 67 67 66 66 66 67 66 65 65 65 65 64 63 62 62 61 62 62 61 60 59 57 59 59 56 58 61 65 68 70 70 70 70
62 63 66 67 68 68 67 67 67 66 66 66 66 67 66 67 67 65 64 64 63 64 65 64 63 62 60 59 59 59 58 59 56 59 59 59 58 62 64 66 68 70 70
60 62 65 65 67 67 67 67 66 66 66 65 65 66 66 67 67 66 63 63 63 64 63 62 61 60 59 58 57 56 56 57 57 58 59 60 59 59 61 62 64 67 69
58 62 63 65 65 67 67 66 66 67 66 65 65 65 67 66 66 65 63 63 65 63 63 62 61 61 58 58 56 57 57 56 56 53 57 61 62 60 59 60 62 64 66
59 61 63 65 66 66 66 66 65 65 65 66 65 65 66 66 66 65 63 64 64 62 62 62 62 61 59 57 54 53 56 57 58 58 58 58 60 62 61 60 59 59 63
59 60 61 63 65 65 64 63 63 63 64 65 65 66 66 66 66 65 62 63 63 61 61 63 62 61 60 60 59 58 57 58 59 59 59 59 61 62 63 62 61 60 61
60 61 60 62 64 65 64 64 63 63 63 63 64 65 65 65 65 64 64 62 62 61 62 63 62 60 60 61 59 58 56 56 61 60 60 60 62 61 62 63 63 63 63
60 61 60 61 61 64 64 65 64 61 61 62 63 63 64 65 65 65 64 63 63 63 61 62 62 61 58 61 62 58 58 55 60 62 63 62 63 63 63 64 64 64 64
43 61 62 61 60 62 64 62 61 57 57 59 61 62 62 64 64 64 64 64 63 62 62 62 61 61 61 59 61 60 61 61 56 56 60 62 64 64 65 65 65 65 64
34 44 62 62 61 60 61 61 60 59 56 61 60 61 62 63 64 63 64 64 63 62 63 63 63 63 61 60 60 61 61 61 61 59 57 58 60 61 64 65 65 65 65
53 52 43 61 62 62 61 62 61 61 59 57 58 59 59 62 63 63 63 64 63 63 63 63 64 63 63 63 62 62 61 59 60 60 59 60 60 62 63 64 66 66 66
Lifted_Index
-0 -0 -1 -2 -2 -2 -2 -2 -2 -2 -2 -3 -3 -3 -3 -4 -4 -4 -4 -4 -4 -4 -4 -4 -4 -4 -3 -3 -3 -3 -3 -3 -2 -2 -2 -2 -2 -2 -2 -2 -1 -2 -2
-0 -1 -1 -2 -2 -2 -2 -2 -2 -2 -3 -3 -3 -3 -4 -4 -4 -4 -4 -4 -4 -4 -4 -4 -4 -3 -3 -3 -3 -3 -3 -3 -2 -2 -2 -1 -1 -1 -2 -2 -2 -2 -2
-1 -1 -1 -1 -2 -2 -2 -2 -2 -3 -3 -3 -3 -3 -4 -4 -4 -4 -3 -3 -3 -3 -3 -3 -3 -3 -3 -3 -3 -3 -3 -2 -2 -2 -1 -1 -1 -1 -1 -2 -2 -2 -2
-1 -0 -0 -1 -2 -2 -2 -2 -2 -2 -3 -3 -3 -3 -4 -4 -4 -3 -3 -3 -3 -3 -2 -2 -2 -2 -2 -2 -2 -2 -2 -2 -1 -1 -0 0 -0 -1 -2 -2 -2 -2 -2
-1 -1 -1 -1 -2 -2 -2 -2 -2 -2 -2 -3 -3 -3 -4 -4 -3 -3 -3 -3 -2 -2 -2 -2 -2 -2 -1 -1 -1 -1 -0 -0 0 1 1 0 -0 -1 -2 -2 -2 -2 -1
-1 -1 -1 -1 -2 -2 -2 -2 -2 -2 -2 -2 -3 -3 -3 -3 -3 -3 -3 -3 -2 -2 -2 -1 -1 -1 -1 -0 -0 0 1 1 1 1 1 0 -0 -1 -2 -2 -2 -2 -2
-2 -1 -1 -1 -2 -2 -2 -2 -2 -2 -2 -2 -3 -3 -3 -3 -3 -3 -3 -3 -2 -2 -2 -1 -1 -0 -0 0 1 1 1 2 2 1 1 0 -1 -1 -2 -2 -2 -2 -2
-2 -2 -1 -1 -2 -2 -2 -2 -1 -1 -2 -2 -2 -3 -3 -3 -2 -2 -2 -2 -2 -2 -1 -1 -0 0 0 1 1 2 2 2 2 1 1 0 -1 -2 -2 -2 -2 -1 -1
-2 -2 -2 -1 -1 -2 -1 -1 -1 -1 -2 -2 -2 -2 -2 -2 -2 -2 -2 -2 -2 -1 -1 -0 0 1 1 1 2 2 2 2 1 1 1 1 -1 -2 -2 -1 -1 -1 -1
-2 -2 -2 -2 -1 -1 -1 -1 -1 -1 -1 -2 -2 -2 -1 -1 -1 -1 -1 -2 -1 -1 -0 0 1 1 1 2 2 2 2 2 1 1 1 1 -1 -2 -2 -1 -1 -1 -0
-2 -2 -2 -2 -2 -1 -1 -1 -1 -1 -1 -1 -1 -1 -1 -0 -0 -0 -1 -1 -1 -0 1 1 1 2 2 2 2 2 2 2 1 1 1 1 -1 -2 -2 -1 -1 -0 -0
-1 -2 -2 -2 -2 -1 -1 -1 -1 -1 -1 -1 -1 -1 -0 -0 0 0 -0 -0 0 1 1 1 2 2 2 2 2 2 2 2 2 1 1 1 0 -1 -2 -1 -1 -0 -0
-1 -2 -2 -2 -2 -2 -1 -1 -1 -1 -1 -1 -1 -1 -0 -0 0 0 0 0 0 1 1 1 2 2 2 2 2 2 2 2 2 2 2 1 1 -1 -2 -2 -1 -1 -1
-1 -1 -2 -2 -2 -2 -2 -1 -1 -1 -1 -1 -1 -1 -0 -0 0 0 0 0 1 1 1 1 2 2 2 2 2 3 3 3 3 3 3 2 1 -0 -2 -2 -2 -2 -1
-1 -1 -2 -2 -2 -2 -2 -2 -1 -1 -1 -1 -1 -0 -0 0 0 0 1 1 1 1 1 2 2 2 2 2 2 3 4 4 4 4 4 4 3 1 -1 -2 -3 -3 -2
-1 -1 -1 -2 -2 -2 -2 -2 -2 -2 -1 -1 -0 -0 0 0 0 1 1 1 1 1 1 2 2 2 2 2 3 3 4 5 4 4 5 5 4 2 0 -1 -2 -2 -2
-0 -1 -1 -1 -2 -2 -2 -2 -2 -2 -2 -1 -1 0 0 0 0 1 1 1 1 1 1 2 2 2 3 3 4 4 4 5 5 4 4 4 4 3 2 1 -0 -1 -2
-1 -0 -1 -1 -2 -2 -2 -2 -2 -2 -2 -1 -1 0 0 0 0 1 1 1 2 1 1 2 2 3 3 4 4 4 5 5 5 5 4 3 3 3 2 2 1 -0 -1
-1 -1 -1 -1 -1 -1 -1 -1 -2 -2 -2 -2 -1 -0 0 0 0 1 1 1 1 1 2 2 2 3 3 4 4 5 5 5 5 5 4 3 3 3 2 2 1 0 -1
-2 -1 -1 -1 -1 -1 -1 -1 -1 -1 -1 -1 -1 -1 -1 -0 -0 0 1 1 1 1 2 2 2 2 3 4 4 4 4 4 4 4 3 3 2 2 2 1 0 0 -0
-2 -2 -2 -2 -1 -1 -1 -0 -0 -0 -1 -1 -1 -1 -1 -1 -1 -0 1 1 1 1 2 2 2 2 2 3 3 3 3 3 3 2 2 2 1 1 1 0 -0 -0 -0
-3 -3 -3 -3 -2 -2 -1 -0 -0 -0 -0 -1 -1 -1 -1 -1 -1 -1 -0 0 1 1 1 1 1 2 2 2 1 1 1 1 1 1 1 0 0 -0 -0 -1 -1 -1 -1
-2 -2 -3 -3 -3 -3 -2 -2 -1 -1 -0 -0 -0 -1 -1 -1 -1 -1 -1 -1 -0 0 1 1 1 1 1 1 0 0 -0 -1 -1 -1 -1 -1 -1 -1 -2 -2 -2 -2 -2
2 -1 -3 -3 -3 -3 -3 -3 -3 -2 -1 -1 -1 -1 -1 -1 -1 -1 -1 -1 -1 -0 -0 0 0 0 0 -0 -0 -1 -1 -1 -1 -2 -2 -2 -2 -2 -3 -3 -3 -3 -3
4 2 -1 -3 -3 -3 -2 -3 -3 -3 -3 -3 -3 -2 -2 -2 -2 -1 -1 -1 -1 -0 -0 -0 -0 -1 -1 -1 -1 -2 -2 -2 -2 -2 -2 -2 -2 -2 -3 -3 -3 -3 -3
4 4 1 -2 -3 -2 -2 -2 -3 -3 -3 -4 -4 -4 -4 -3 -2 -1 -1 -1 -0 -1 -1 -1 -1 -1 -1 -2 -2 -2 -2 -3 -3 -2 -2 -2 -2 -2 -3 -3 -4 -4 -3